| time (UTC) | temp F | wind direction | speed MPH | gust MPH | rain 1hr in | rain 24hr in | rain mn in | humidity % | barometer mb |
| 20260831165301 | 78 | 115 | 1.0 | 1.0 | 0.00 | 0.00 | 0.00 | 81 | 1013.8 |
| 20260831164756 | 78 | 140 | 1.0 | 1.0 | 0.00 | 0.00 | 0.00 | 83 | 1014.1 |
| 20260831164253 | 77 | 147 | 0.0 | 0.0 | 0.00 | 0.00 | 0.00 | 84 | 1013.9 |
| 20260831163748 | 77 | 129 | 1.0 | 2.0 | 0.00 | 0.00 | 0.00 | 85 | 1014.1 |
| 20260831163243 | 77 | 125 | 1.0 | 1.0 | 0.00 | 0.00 | 0.00 | 85 | 1013.9 |
| 20260831162742 | 76 | 154 | 0.0 | 1.0 | 0.00 | 0.00 | 0.00 | 87 | 1014.0 |
| 20260831162236 | 76 | 119 | 0.0 | 1.0 | 0.00 | 0.00 | 0.00 | 87 | 1014.3 |
| 20260831161730 | 76 | 142 | 0.0 | 1.0 | 0.00 | 0.00 | 0.00 | 88 | 1014.2 |
| 20260831161227 | 75 | 155 | 0.0 | 1.0 | 0.00 | 0.00 | 0.00 | 89 | 1014.3 |
| 20260831160727 | 75 | 132 | 0.0 | 1.0 | 0.00 | 0.00 | 0.00 | 90 | 1014.1 |
| 20260831160222 | 75 | 143 | 1.0 | 1.0 | 0.00 | 0.00 | 0.00 | 89 | 1014.4 |
| 20260831155721 | 74 | 159 | 1.0 | 1.0 | 0.00 | 0.00 | 0.00 | 91 | 1014.5 |
| 20260831155217 | 74 | 195 | 1.0 | 1.0 | 0.00 | 0.00 | 0.00 | 91 | 1014.3 |
| 20260831154713 | 73 | 190 | 2.0 | 2.0 | 0.00 | 0.00 | 0.00 | 92 | 1014.5 |
| 20260831154209 | 73 | 134 | 0.0 | 0.0 | 0.00 | 0.00 | 0.00 | 92 | 1014.5 |
| 20260831153707 | 73 | 134 | 0.0 | 1.0 | 0.00 | 0.00 | 0.00 | 92 | 1014.5 |
| 20260831153203 | 73 | 151 | 1.0 | 1.0 | 0.00 | 0.00 | 0.00 | 92 | 1014.6 |
| 20260831152659 | 73 | 141 | 0.0 | 1.0 | 0.00 | 0.00 | 0.00 | 92 | 1014.6 |
| 20260831152155 | 73 | 163 | 1.0 | 2.0 | 0.00 | 0.00 | 0.00 | 91 | 1014.8 |
| 20260831151654 | 73 | 171 | 2.0 | 2.0 | 0.00 | 0.00 | 0.00 | 92 | 1014.7 |
| 20260831151149 | 73 | 144 | 1.0 | 2.0 | 0.00 | 0.00 | 0.00 | 93 | 1014.9 |
| 20260831150644 | 72 | 162 | 1.0 | 2.0 | 0.00 | 0.00 | 0.00 | 94 | 1014.4 |
| 20260831150139 | 72 | 137 | 0.0 | 1.0 | 0.00 | 0.00 | 0.00 | 94 | 1014.9 |
| 20260831145633 | 72 | 132 | 0.0 | 1.0 | 0.00 | 0.00 | 0.00 | 94 | 1014.7 |
| 20260831145129 | 73 | 131 | 0.0 | 0.0 | 0.00 | 0.00 | 0.00 | 93 | 1015.3 |
| 20260831144625 | 74 | 130 | 0.0 | 0.0 | 0.00 | 0.00 | 0.00 | 91 | 1015.4 |
| 20260831144121 | 74 | 130 | 0.0 | 0.0 | 0.00 | 0.00 | 0.00 | 90 | 1015.4 |
| 20260831143620 | 74 | 130 | 0.0 | 0.0 | 0.00 | 0.00 | 0.00 | 89 | 1015.3 |
| 20260831143115 | 74 | 126 | 0.0 | 0.0 | 0.00 | 0.00 | 0.00 | 89 | 1015.0 |
| 20260831142612 | 73 | 153 | 0.0 | 1.0 | 0.00 | 0.00 | 0.00 | 88 | 1015.3 |
| 20260831142107 | 74 | 134 | 0.0 | 1.0 | 0.00 | 0.00 | 0.00 | 89 | 1014.3 |
| 20260831141606 | 73 | 134 | 1.0 | 2.0 | 0.00 | 0.00 | 0.00 | 89 | 1014.8 |
| 20260831141101 | 73 | 136 | 0.0 | 0.0 | 0.00 | 0.00 | 0.00 | 91 | 1014.8 |
| 20260831140601 | 73 | 128 | 0.0 | 0.0 | 0.00 | 0.00 | 0.00 | 91 | 1014.9 |
| 20260831140055 | 73 | 135 | 0.0 | 0.0 | 0.00 | 0.00 | 0.00 | 91 | 1014.8 |
| 20260831135553 | 73 | 129 | 0.0 | 0.0 | 0.00 | 0.00 | 0.00 | 91 | 1014.8 |
| 20260831135049 | 73 | 128 | 0.0 | 0.0 | 0.00 | 0.00 | 0.00 | 90 | 1014.7 |
| 20260831134544 | 73 | 129 | 0.0 | 0.0 | 0.00 | 0.00 | 0.00 | 90 | 1014.8 |
| 20260831134039 | 74 | 129 | 0.0 | 0.0 | 0.00 | 0.00 | 0.00 | 91 | 1014.7 |
| 20260831133539 | 74 | 135 | 0.0 | 0.0 | 0.00 | 0.00 | 0.00 | 90 | 1014.9 |
| 20260831133034 | 73 | 148 | 0.0 | 0.0 | 0.00 | 0.00 | 0.00 | 89 | 1014.6 |
| 20260831132530 | 74 | 127 | 1.0 | 1.0 | 0.00 | 0.00 | 0.00 | 88 | 1014.9 |
| 20260831132028 | 74 | 139 | 0.0 | 0.0 | 0.00 | 0.00 | 0.00 | 88 | 1014.5 |
| 20260831131523 | 74 | 173 | 2.0 | 2.0 | 0.00 | 0.00 | 0.00 | 86 | 1014.7 |
| 20260831131020 | 75 | 195 | 2.0 | 3.0 | 0.00 | 0.00 | 0.00 | 86 | 1014.6 |
| 20260831130519 | 75 | 211 | 2.0 | 2.0 | 0.00 | 0.00 | 0.00 | 85 | 1014.7 |
| 20260831130016 | 75 | 213 | 1.0 | 1.0 | 0.00 | 0.00 | 0.00 | 85 | 1014.4 |
| 20260831125509 | 75 | 165 | 3.0 | 3.0 | 0.00 | 0.00 | 0.00 | 85 | 1014.6 |
| 20260831125005 | 74 | 199 | 1.0 | 2.0 | 0.00 | 0.00 | 0.00 | 86 | 1014.6 |
| 20260831124501 | 74 | 142 | 2.0 | 2.0 | 0.00 | 0.00 | 0.00 | 87 | 1014.4 |
| 20260831123956 | 74 | 156 | 0.0 | 0.0 | 0.00 | 0.00 | 0.00 | 88 | 1014.6 |
| 20260831123455 | 73 | 226 | 1.0 | 1.0 | 0.00 | 0.00 | 0.00 | 89 | 1014.6 |
| 20260831122949 | 73 | 162 | 1.0 | 2.0 | 0.00 | 0.00 | 0.00 | 89 | 1014.4 |
| 20260831122445 | 73 | 151 | 1.0 | 2.0 | 0.00 | 0.00 | 0.00 | 88 | 1014.4 |
| 20260831121940 | 73 | 193 | 1.0 | 2.0 | 0.00 | 0.00 | 0.00 | 88 | 1014.5 |
| 20260831121436 | 73 | 226 | 1.0 | 3.0 | 0.00 | 0.00 | 0.00 | 88 | 1014.2 |
| 20260831120931 | 73 | 198 | 1.0 | 2.0 | 0.00 | 0.00 | 0.00 | 88 | 1014.2 |
| 20260831120426 | 73 | 143 | 1.0 | 2.0 | 0.00 | 0.00 | 0.00 | 88 | 1014.0 |
| 20260831115926 | 73 | 184 | 1.0 | 2.0 | 0.00 | 0.00 | 0.00 | 89 | 1014.0 |
| 20260831115422 | 72 | 157 | 0.0 | 0.0 | 0.00 | 0.00 | 0.00 | 90 | 1014.0 |
| 20260831114922 | 72 | 140 | 0.0 | 0.0 | 0.00 | 0.00 | 0.00 | 90 | 1014.2 |
| 20260831114421 | 72 | 140 | 0.0 | 1.0 | 0.00 | 0.00 | 0.00 | 90 | 1014.1 |
| 20260831113917 | 72 | 190 | 1.0 | 2.0 | 0.00 | 0.00 | 0.00 | 91 | 1014.2 |
| 20260831113416 | 71 | 128 | 0.0 | 0.0 | 0.00 | 0.00 | 0.00 | 92 | 1013.8 |
| 20260831112911 | 71 | 128 | 0.0 | 1.0 | 0.00 | 0.00 | 0.00 | 93 | 1013.7 |
| 20260831112411 | 70 | 134 | 0.0 | 0.0 | 0.00 | 0.00 | 0.00 | 96 | 1013.5 |
| 20260831111907 | 69 | 125 | 0.0 | 0.0 | 0.00 | 0.00 | 0.00 | 97 | 1013.9 |
| 20260831111403 | 69 | 127 | 0.0 | 0.0 | 0.00 | 0.00 | 0.00 | 98 | 1013.7 |
| 20260831110858 | 69 | 129 | 0.0 | 0.0 | 0.00 | 0.00 | 0.00 | 98 | 1013.8 |
| 20260831110353 | 69 | 125 | 0.0 | 0.0 | 0.00 | 0.00 | 0.00 | 98 | 1013.9 |
| 20260831105851 | 69 | 119 | 0.0 | 0.0 | 0.00 | 0.00 | 0.00 | 98 | 1013.9 |
| 20260831105347 | 69 | 129 | 0.0 | 0.0 | 0.00 | 0.00 | 0.00 | 98 | 1013.8 |
| 20260831104842 | 69 | 122 | 0.0 | 0.0 | 0.00 | 0.00 | 0.00 | 98 | 1014.0 |
| 20260831104333 | 69 | 128 | 0.0 | 0.0 | 0.00 | 0.00 | 0.00 | 98 | 1013.6 |
| 20260831103833 | 69 | 127 | 0.0 | 0.0 | 0.00 | 0.00 | 0.00 | 98 | 1013.8 |
| 20260831103328 | 69 | 127 | 0.0 | 0.0 | 0.00 | 0.00 | 0.00 | 98 | 1014.0 |
| 20260831102823 | 69 | 132 | 0.0 | 0.0 | 0.00 | 0.00 | 0.00 | 98 | 1014.0 |
| 20260831102318 | 69 | 127 | 0.0 | 0.0 | 0.00 | 0.00 | 0.00 | 98 | 1013.9 |
| 20260831101814 | 69 | 131 | 0.0 | 0.0 | 0.00 | 0.00 | 0.00 | 98 | 1014.1 |
| 20260831101309 | 69 | 124 | 0.0 | 0.0 | 0.00 | 0.00 | 0.00 | 98 | 1014.2 |
| 20260831100805 | 69 | 122 | 0.0 | 0.0 | 0.00 | 0.00 | 0.00 | 97 | 1014.2 |
| 20260831100301 | 69 | 128 | 0.0 | 0.0 | 0.00 | 0.00 | 0.00 | 97 | 1014.1 |
| 20260831095800 | 69 | 126 | 0.0 | 0.0 | 0.00 | 0.00 | 0.00 | 97 | 1014.3 |
| 20260831095254 | 69 | 126 | 0.0 | 0.0 | 0.00 | 0.00 | 0.00 | 97 | 1014.3 |
| 20260831094749 | 69 | 129 | 0.0 | 0.0 | 0.00 | 0.00 | 0.00 | 97 | 1014.3 |
| 20260831094245 | 69 | 128 | 0.0 | 0.0 | 0.00 | 0.00 | 0.00 | 97 | 1014.1 |
| 20260831093741 | 69 | 124 | 0.0 | 0.0 | 0.00 | 0.00 | 0.00 | 97 | 1014.3 |
| 20260831093241 | 69 | 120 | 0.0 | 0.0 | 0.00 | 0.00 | 0.00 | 97 | 1014.5 |
| 20260831092737 | 69 | 111 | 0.0 | 0.0 | 0.00 | 0.00 | 0.00 | 97 | 1014.2 |
| 20260831092233 | 69 | 126 | 0.0 | 0.0 | 0.00 | 0.00 | 0.00 | 97 | 1014.4 |
| 20260831091732 | 69 | 128 | 0.0 | 0.0 | 0.00 | 0.00 | 0.00 | 98 | 1014.5 |
| 20260831091228 | 69 | 128 | 0.0 | 0.0 | 0.00 | 0.00 | 0.00 | 98 | 1014.4 |
| 20260831090723 | 69 | 171 | 0.0 | 0.0 | 0.00 | 0.00 | 0.00 | 98 | 1014.4 |
| 20260831090220 | 68 | 127 | 0.0 | 0.0 | 0.00 | 0.00 | 0.00 | 98 | 1014.1 |
| 20260831085715 | 68 | 129 | 0.0 | 0.0 | 0.00 | 0.00 | 0.00 | 98 | 1014.2 |
| 20260831085210 | 68 | 133 | 0.0 | 0.0 | 0.00 | 0.00 | 0.00 | 98 | 1014.3 |
| 20260831084705 | 68 | 127 | 0.0 | 0.0 | 0.00 | 0.00 | 0.00 | 98 | 1014.5 |
| 20260831084201 | 68 | 129 | 0.0 | 0.0 | 0.00 | 0.00 | 0.00 | 98 | 1014.4 |
| 20260831083657 | 68 | 125 | 0.0 | 0.0 | 0.00 | 0.00 | 0.00 | 98 | 1014.1 |
| 20260831083153 | 68 | 131 | 0.0 | 0.0 | 0.00 | 0.00 | 0.00 | 98 | 1014.3 |
| 20260831082650 | 68 | 124 | 0.0 | 0.0 | 0.00 | 0.00 | 0.00 | 98 | 1014.5 |
| 20260831082146 | 68 | 129 | 0.0 | 0.0 | 0.00 | 0.00 | 0.00 | 98 | 1013.9 |
| 20260831081641 | 69 | 129 | 0.0 | 0.0 | 0.00 | 0.00 | 0.00 | 98 | 1014.2 |
| 20260831081137 | 69 | 133 | 0.0 | 0.0 | 0.00 | 0.00 | 0.00 | 97 | 1014.2 |
| 20260831080633 | 69 | 124 | 0.0 | 0.0 | 0.00 | 0.00 | 0.00 | 97 | 1014.4 |
| 20260831080127 | 69 | 125 | 0.0 | 0.0 | 0.00 | 0.00 | 0.00 | 97 | 1014.2 |
| 20260831075623 | 69 | 125 | 0.0 | 0.0 | 0.00 | 0.00 | 0.00 | 97 | 1014.4 |
| 20260831075119 | 69 | 131 | 0.0 | 0.0 | 0.00 | 0.00 | 0.00 | 97 | 1014.3 |
| 20260831074618 | 69 | 123 | 0.0 | 0.0 | 0.00 | 0.00 | 0.00 | 97 | 1014.3 |
| 20260831074113 | 69 | 127 | 0.0 | 0.0 | 0.00 | 0.00 | 0.00 | 97 | 1014.4 |
| 20260831073608 | 69 | 128 | 0.0 | 0.0 | 0.00 | 0.00 | 0.00 | 96 | 1014.3 |
| 20260831073107 | 69 | 150 | 0.0 | 1.0 | 0.00 | 0.00 | 0.00 | 96 | 1014.5 |
| 20260831072602 | 69 | 128 | 0.0 | 0.0 | 0.00 | 0.00 | 0.00 | 96 | 1014.4 |
| 20260831072100 | 69 | 126 | 0.0 | 0.0 | 0.00 | 0.00 | 0.00 | 96 | 1014.4 |
| 20260831071557 | 69 | 128 | 0.0 | 0.0 | 0.00 | 0.00 | 0.00 | 96 | 1014.5 |
| 20260831071053 | 69 | 131 | 0.0 | 0.0 | 0.00 | 0.00 | 0.00 | 96 | 1014.6 |
| 20260831070552 | 69 | 131 | 0.0 | 0.0 | 0.00 | 0.00 | 0.00 | 95 | 1014.6 |
| 20260831070047 | 69 | 131 | 0.0 | 0.0 | 0.00 | 0.00 | 0.00 | 95 | 1014.7 |
| 20260831065544 | 69 | 132 | 0.0 | 0.0 | 0.00 | 0.00 | 0.00 | 95 | 1014.6 |
| 20260831065039 | 69 | 124 | 0.0 | 0.0 | 0.00 | 0.00 | 0.00 | 95 | 1014.6 |
| 20260831064534 | 69 | 152 | 0.0 | 0.0 | 0.00 | 0.00 | 0.00 | 95 | 1014.3 |
| 20260831064030 | 69 | 128 | 0.0 | 0.0 | 0.00 | 0.00 | 0.00 | 95 | 1014.2 |
| 20260831063525 | 69 | 121 | 0.0 | 0.0 | 0.00 | 0.00 | 0.00 | 95 | 1014.0 |
| 20260831063020 | 69 | 113 | 0.0 | 0.0 | 0.00 | 0.00 | 0.00 | 95 | 1014.2 |
| 20260831062515 | 69 | 126 | 0.0 | 0.0 | 0.00 | 0.00 | 0.00 | 95 | 1014.1 |
| 20260831062014 | 69 | 125 | 0.0 | 0.0 | 0.00 | 0.00 | 0.00 | 95 | 1014.2 |
| 20260831061512 | 69 | 118 | 0.0 | 0.0 | 0.00 | 0.00 | 0.00 | 95 | 1014.3 |
| 20260831061009 | 69 | 134 | 0.0 | 0.0 | 0.00 | 0.00 | 0.00 | 95 | 1014.2 |
| 20260831060508 | 69 | 125 | 0.0 | 0.0 | 0.00 | 0.00 | 0.00 | 95 | 1014.3 |
| 20260831060004 | 69 | 123 | 0.0 | 0.0 | 0.00 | 0.00 | 0.00 | 95 | 1014.5 |
| 20260831055458 | 69 | 109 | 0.0 | 0.0 | 0.00 | 0.00 | 0.00 | 95 | 1014.5 |
| 20260831054954 | 69 | 119 | 0.0 | 0.0 | 0.00 | 0.00 | 0.00 | 95 | 1014.4 |
| 20260831054454 | 69 | 125 | 0.0 | 0.0 | 0.00 | 0.00 | 0.00 | 95 | 1014.4 |
| 20260831053953 | 69 | 124 | 0.0 | 0.0 | 0.00 | 0.00 | 0.00 | 95 | 1014.2 |
| 20260831053451 | 69 | 127 | 0.0 | 0.0 | 0.00 | 0.00 | 0.00 | 95 | 1014.3 |
| 20260831052946 | 70 | 125 | 0.0 | 0.0 | 0.00 | 0.00 | 0.00 | 95 | 1014.3 |
| 20260831052445 | 69 | 121 | 0.0 | 0.0 | 0.00 | 0.00 | 0.00 | 95 | 1014.5 |
| 20260831051944 | 69 | 122 | 0.0 | 0.0 | 0.00 | 0.00 | 0.00 | 95 | 1014.6 |
| 20260831051443 | 69 | 124 | 0.0 | 0.0 | 0.00 | 0.00 | 0.00 | 95 | 1014.6 |
| 20260831050937 | 70 | 128 | 0.0 | 0.0 | 0.00 | 0.00 | 0.00 | 95 | 1014.5 |
| 20260831050437 | 70 | 127 | 0.0 | 0.0 | 0.00 | 0.00 | 0.00 | 95 | 1014.6 |
| 20260831045936 | 70 | 125 | 0.0 | 0.0 | 0.00 | 0.00 | 0.00 | 95 | 1014.6 |
| 20260831045435 | 70 | 125 | 0.0 | 0.0 | 0.00 | 0.00 | 0.00 | 95 | 1014.9 |
| 20260831044930 | 70 | 125 | 0.0 | 0.0 | 0.00 | 0.00 | 0.00 | 95 | 1014.7 |
| 20260831044426 | 70 | 125 | 0.0 | 0.0 | 0.00 | 0.00 | 0.00 | 95 | 1014.9 |
| 20260831043921 | 70 | 125 | 0.0 | 0.0 | 0.00 | 0.00 | 0.00 | 94 | 1014.6 |
| 20260831043421 | 70 | 125 | 0.0 | 0.0 | 0.00 | 0.00 | 0.00 | 94 | 1014.6 |
| 20260831042917 | 70 | 126 | 0.0 | 0.0 | 0.00 | 0.00 | 0.00 | 94 | 1014.6 |
| 20260831042416 | 70 | 125 | 0.0 | 0.0 | 0.00 | 0.00 | 0.00 | 94 | 1014.7 |
| 20260831041911 | 70 | 125 | 0.0 | 0.0 | 0.00 | 0.00 | 0.00 | 93 | 1014.8 |
| 20260831041410 | 70 | 131 | 0.0 | 0.0 | 0.00 | 0.00 | 0.00 | 93 | 1014.4 |
| 20260831040906 | 70 | 124 | 0.0 | 0.0 | 0.00 | 0.00 | 0.00 | 93 | 1014.6 |
| 20260831040400 | 71 | 126 | 0.0 | 0.0 | 0.00 | 0.00 | 0.00 | 93 | 1014.6 |
| 20260831035858 | 71 | 121 | 0.0 | 0.0 | 0.00 | 0.00 | 0.00 | 93 | 1014.5 |
| 20260831035357 | 71 | 131 | 0.0 | 0.0 | 0.00 | 0.00 | 0.00 | 93 | 1014.5 |
| 20260831034852 | 71 | 155 | 0.0 | 0.0 | 0.00 | 0.00 | 0.00 | 93 | 1014.7 |
| 20260831034347 | 71 | 133 | 0.0 | 0.0 | 0.00 | 0.00 | 0.00 | 93 | 1014.6 |
| 20260831033842 | 71 | 133 | 0.0 | 0.0 | 0.00 | 0.00 | 0.00 | 93 | 1014.6 |
| 20260831033343 | 71 | 130 | 0.0 | 0.0 | 0.00 | 0.00 | 0.00 | 93 | 1014.5 |
| 20260831032838 | 71 | 118 | 0.0 | 0.0 | 0.00 | 0.00 | 0.00 | 93 | 1014.6 |
| 20260831032332 | 71 | 126 | 0.0 | 0.0 | 0.00 | 0.00 | 0.00 | 93 | 1014.6 |
| 20260831031828 | 71 | 129 | 0.0 | 0.0 | 0.00 | 0.00 | 0.00 | 92 | 1014.8 |
| 20260831031326 | 71 | 130 | 0.0 | 0.0 | 0.00 | 0.00 | 0.00 | 92 | 1014.7 |
| 20260831030822 | 72 | 126 | 0.0 | 0.0 | 0.00 | 0.00 | 0.00 | 91 | 1014.6 |
| 20260831030319 | 72 | 129 | 0.0 | 0.0 | 0.00 | 0.00 | 0.00 | 91 | 1014.7 |
| 20260831025814 | 72 | 128 | 0.0 | 0.0 | 0.00 | 0.00 | 0.00 | 90 | 1014.8 |
| 20260831025308 | 72 | 127 | 0.0 | 0.0 | 0.00 | 0.00 | 0.00 | 90 | 1014.7 |
| 20260831024804 | 72 | 130 | 0.0 | 0.0 | 0.00 | 0.00 | 0.00 | 89 | 1014.8 |
| 20260831024303 | 73 | 125 | 0.0 | 0.0 | 0.00 | 0.00 | 0.00 | 89 | 1014.4 |
| 20260831023802 | 73 | 166 | 0.0 | 0.0 | 0.00 | 0.00 | 0.00 | 88 | 1014.4 |
| 20260831023300 | 73 | 130 | 0.0 | 0.0 | 0.00 | 0.00 | 0.00 | 88 | 1014.0 |
| 20260831022756 | 73 | 132 | 0.0 | 0.0 | 0.00 | 0.00 | 0.00 | 88 | 1014.3 |
| 20260831022255 | 73 | 132 | 0.0 | 0.0 | 0.00 | 0.00 | 0.00 | 88 | 1014.2 |
| 20260831021750 | 73 | 138 | 0.0 | 0.0 | 0.00 | 0.00 | 0.00 | 87 | 1014.2 |
| 20260831021250 | 73 | 145 | 0.0 | 0.0 | 0.00 | 0.00 | 0.00 | 88 | 1014.2 |
| 20260831020747 | 74 | 144 | 0.0 | 0.0 | 0.00 | 0.00 | 0.00 | 87 | 1014.3 |
| 20260831020245 | 74 | 130 | 0.0 | 0.0 | 0.00 | 0.00 | 0.00 | 87 | 1014.4 |
| 20260831015741 | 74 | 145 | 1.0 | 1.0 | 0.00 | 0.00 | 0.00 | 87 | 1014.2 |
| 20260831015236 | 74 | 133 | 0.0 | 0.0 | 0.00 | 0.00 | 0.00 | 87 | 1014.5 |
| 20260831014731 | 74 | 158 | 0.0 | 0.0 | 0.00 | 0.00 | 0.00 | 87 | 1014.3 |
| 20260831014226 | 74 | 129 | 0.0 | 1.0 | 0.00 | 0.00 | 0.00 | 87 | 1014.0 |
| 20260831013722 | 74 | 125 | 0.0 | 1.0 | 0.00 | 0.00 | 0.00 | 86 | 1014.2 |
| 20260831013221 | 74 | 131 | 0.0 | 0.0 | 0.00 | 0.00 | 0.00 | 87 | 1014.4 |
| 20260831012716 | 74 | 150 | 0.0 | 0.0 | 0.00 | 0.00 | 0.00 | 86 | 1014.2 |
| 20260831012212 | 74 | 145 | 0.0 | 1.0 | 0.00 | 0.00 | 0.00 | 86 | 1014.0 |
| 20260831011711 | 74 | 150 | 1.0 | 1.0 | 0.00 | 0.00 | 0.00 | 86 | 1013.9 |
| 20260831011207 | 74 | 135 | 0.0 | 0.0 | 0.00 | 0.00 | 0.00 | 86 | 1013.9 |
| 20260831010703 | 75 | 143 | 0.0 | 0.0 | 0.00 | 0.00 | 0.00 | 86 | 1014.0 |
| 20260831010157 | 74 | 167 | 1.0 | 1.0 | 0.00 | 0.00 | 0.00 | 86 | 1013.7 |
| 20260831005657 | 75 | 137 | 0.0 | 0.0 | 0.00 | 0.00 | 0.00 | 86 | 1013.7 |
| 20260831005153 | 75 | 130 | 0.0 | 0.0 | 0.00 | 0.00 | 0.00 | 85 | 1013.7 |
| 20260831004648 | 75 | 135 | 0.0 | 0.0 | 0.00 | 0.00 | 0.00 | 85 | 1013.7 |
| 20260831004144 | 75 | 241 | 1.0 | 2.0 | 0.00 | 0.00 | 0.00 | 85 | 1013.7 |
| 20260831003640 | 75 | 169 | 2.0 | 2.0 | 0.00 | 0.00 | 0.00 | 84 | 1013.6 |
| 20260831003136 | 75 | 245 | 3.0 | 3.0 | 0.00 | 0.00 | 0.00 | 84 | 1013.4 |
| 20260831002634 | 75 | 138 | 0.0 | 1.0 | 0.00 | 0.00 | 0.00 | 84 | 1013.7 |
| 20260831002129 | 75 | 212 | 2.0 | 2.0 | 0.00 | 0.00 | 0.00 | 84 | 1013.5 |
| 20260831001625 | 75 | 195 | 2.0 | 2.0 | 0.00 | 0.00 | 0.00 | 84 | 1013.5 |
| 20260831001121 | 76 | 218 | 2.0 | 2.0 | 0.00 | 0.00 | 0.00 | 83 | 1013.5 |
| 20260831000618 | 76 | 226 | 1.0 | 2.0 | 0.00 | 0.00 | 0.00 | 83 | 1013.6 |
| 20260831000117 | 76 | 229 | 4.0 | 5.0 | 0.00 | 0.00 | 0.00 | 82 | 1013.7 |
| 20260830235616 | 76 | 271 | 1.0 | 1.0 | 0.00 | 0.00 | 0.00 | 82 | 1013.8 |
| 20260830235111 | 76 | 237 | 1.0 | 2.0 | 0.00 | 0.00 | 0.00 | 82 | 1013.8 |
| 20260830234606 | 77 | 148 | 1.0 | 1.0 | 0.00 | 0.00 | 0.00 | 81 | 1013.9 |
| 20260830234101 | 77 | 178 | 1.0 | 1.0 | 0.00 | 0.00 | 0.00 | 81 | 1013.4 |
| 20260830233556 | 77 | 243 | 2.0 | 3.0 | 0.00 | 0.00 | 0.00 | 80 | 1013.7 |
| 20260830233052 | 77 | 229 | 4.0 | 6.0 | 0.00 | 0.00 | 0.00 | 80 | 1013.6 |
| 20260830232548 | 77 | 200 | 2.0 | 2.0 | 0.00 | 0.00 | 0.00 | 79 | 1013.8 |
| 20260830232044 | 78 | 166 | 3.0 | 5.0 | 0.00 | 0.00 | 0.00 | 79 | 1013.7 |
| 20260830231539 | 78 | 162 | 2.0 | 3.0 | 0.00 | 0.00 | 0.00 | 78 | 1013.4 |
| 20260830231038 | 78 | 195 | 1.0 | 1.0 | 0.00 | 0.00 | 0.00 | 78 | 1013.4 |
| 20260830230534 | 78 | 160 | 0.0 | 1.0 | 0.00 | 0.00 | 0.00 | 77 | 1013.4 |
| 20260830230029 | 78 | 224 | 4.0 | 6.0 | 0.00 | 0.00 | 0.00 | 76 | 1013.3 |
| 20260830225524 | 78 | 226 | 3.0 | 5.0 | 0.00 | 0.00 | 0.00 | 76 | 1013.6 |
| 20260830225023 | 79 | 85 | 3.0 | 5.0 | 0.00 | 0.00 | 0.00 | 76 | 1013.3 |
| 20260830224522 | 79 | 247 | 2.0 | 2.0 | 0.00 | 0.00 | 0.00 | 75 | 1013.5 |
| 20260830224019 | 79 | 184 | 6.0 | 14.0 | 0.00 | 0.00 | 0.00 | 74 | 1013.7 |
| 20260830223516 | 79 | 161 | 3.0 | 6.0 | 0.00 | 0.00 | 0.00 | 74 | 1013.8 |
| 20260830223015 | 79 | 231 | 5.0 | 6.0 | 0.00 | 0.00 | 0.00 | 73 | 1013.8 |
| 20260830222510 | 80 | 218 | 4.0 | 6.0 | 0.00 | 0.00 | 0.00 | 72 | 1013.6 |
| 20260830222006 | 80 | 147 | 1.0 | 2.0 | 0.00 | 0.00 | 0.00 | 71 | 1013.9 |
| 20260830221501 | 80 | 182 | 1.0 | 2.0 | 0.00 | 0.00 | 0.00 | 71 | 1013.7 |
| 20260830220952 | 81 | 163 | 4.0 | 6.0 | 0.00 | 0.00 | 0.00 | 69 | 1013.7 |
| 20260830220451 | 81 | 170 | 2.0 | 2.0 | 0.00 | 0.00 | 0.00 | 69 | 1013.6 |
| 20260830215949 | 81 | 270 | 5.0 | 7.0 | 0.00 | 0.00 | 0.00 | 68 | 1013.5 |
| 20260830215444 | 82 | 158 | 2.0 | 2.0 | 0.00 | 0.00 | 0.00 | 67 | 1013.4 |
| 20260830214938 | 82 | 281 | 10.0 | 14.0 | 0.00 | 0.00 | 0.00 | 65 | 1013.9 |
| 20260830214434 | 83 | 209 | 0.0 | 1.0 | 0.00 | 0.00 | 0.00 | 65 | 1013.7 |
| 20260830213928 | 83 | 331 | 3.0 | 6.0 | 0.00 | 0.00 | 0.00 | 64 | 1013.8 |
| 20260830213424 | 83 | 138 | 2.0 | 5.0 | 0.00 | 0.00 | 0.00 | 64 | 1013.7 |
| 20260830212920 | 83 | 197 | 3.0 | 3.0 | 0.00 | 0.00 | 0.00 | 64 | 1013.7 |
| 20260830212415 | 84 | 206 | 2.0 | 5.0 | 0.00 | 0.00 | 0.00 | 64 | 1013.6 |
| 20260830211914 | 85 | 133 | 0.0 | 1.0 | 0.00 | 0.00 | 0.00 | 63 | 1013.7 |
| 20260830211409 | 86 | 144 | 3.0 | 5.0 | 0.00 | 0.00 | 0.00 | 62 | 1013.6 |
| 20260830210905 | 86 | 243 | 4.0 | 6.0 | 0.00 | 0.00 | 0.00 | 61 | 1013.8 |
| 20260830210403 | 85 | 226 | 5.0 | 7.0 | 0.00 | 0.00 | 0.00 | 61 | 1013.8 |
| 20260830205901 | 85 | 132 | 2.0 | 2.0 | 0.00 | 0.00 | 0.00 | 61 | 1013.7 |
| 20260830205400 | 85 | 205 | 3.0 | 5.0 | 0.00 | 0.00 | 0.00 | 63 | 1013.8 |
| 20260830204856 | 85 | 242 | 3.0 | 5.0 | 0.00 | 0.00 | 0.00 | 62 | 1013.7 |
| 20260830204354 | 86 | 257 | 2.0 | 3.0 | 0.00 | 0.00 | 0.00 | 61 | 1013.9 |
| 20260830203850 | 87 | 173 | 3.0 | 3.0 | 0.00 | 0.00 | 0.00 | 60 | 1014.0 |
| 20260830203347 | 86 | 246 | 4.0 | 6.0 | 0.00 | 0.00 | 0.00 | 60 | 1013.4 |
| 20260830202846 | 86 | 176 | 3.0 | 5.0 | 0.00 | 0.00 | 0.00 | 62 | 1014.0 |
| 20260830202341 | 86 | 190 | 4.0 | 5.0 | 0.00 | 0.00 | 0.00 | 62 | 1014.0 |
| 20260830201836 | 86 | 175 | 3.0 | 5.0 | 0.00 | 0.00 | 0.00 | 62 | 1014.0 |
| 20260830201331 | 85 | 140 | 4.0 | 8.0 | 0.00 | 0.00 | 0.00 | 63 | 1014.0 |
| 20260830200826 | 85 | 188 | 5.0 | 6.0 | 0.00 | 0.00 | 0.00 | 63 | 1014.0 |
| 20260830200326 | 85 | 178 | 1.0 | 1.0 | 0.00 | 0.00 | 0.00 | 65 | 1014.3 |
| 20260830195821 | 85 | 132 | 2.0 | 5.0 | 0.00 | 0.00 | 0.00 | 65 | 1013.9 |
| 20260830195320 | 86 | 187 | 2.0 | 3.0 | 0.00 | 0.00 | 0.00 | 66 | 1014.0 |
| 20260830194819 | 86 | 177 | 2.0 | 2.0 | 0.00 | 0.00 | 0.00 | 66 | 1014.0 |
| 20260830194312 | 85 | 213 | 1.0 | 2.0 | 0.00 | 0.00 | 0.00 | 67 | 1013.9 |
| 20260830193808 | 84 | 194 | 3.0 | 5.0 | 0.00 | 0.00 | 0.00 | 67 | 1014.1 |
| 20260830193307 | 84 | 151 | 2.0 | 3.0 | 0.00 | 0.00 | 0.00 | 68 | 1014.0 |
| 20260830192804 | 85 | 244 | 3.0 | 6.0 | 0.00 | 0.00 | 0.00 | 66 | 1014.1 |
| 20260830192257 | 85 | 130 | 2.0 | 2.0 | 0.00 | 0.00 | 0.00 | 68 | 1014.0 |
| 20260830191754 | 84 | 229 | 3.0 | 5.0 | 0.00 | 0.00 | 0.00 | 69 | 1013.9 |
| 20260830191253 | 83 | 112 | 3.0 | 3.0 | 0.00 | 0.00 | 0.00 | 71 | 1013.8 |
| 20260830190749 | 84 | 207 | 1.0 | 1.0 | 0.00 | 0.00 | 0.00 | 71 | 1013.8 |
| 20260830190244 | 83 | 294 | 3.0 | 3.0 | 0.00 | 0.00 | 0.00 | 71 | 1013.8 |
| 20260830185742 | 82 | 221 | 2.0 | 2.0 | 0.00 | 0.00 | 0.00 | 72 | 1013.8 |
| 20260830185238 | 82 | 26 | 1.0 | 2.0 | 0.00 | 0.00 | 0.00 | 72 | 1013.6 |
| 20260830184737 | 83 | 173 | 3.0 | 3.0 | 0.00 | 0.00 | 0.00 | 71 | 1013.7 |
| 20260830184237 | 82 | 145 | 0.0 | 1.0 | 0.00 | 0.00 | 0.00 | 74 | 1013.7 |
| 20260830183732 | 82 | 158 | 2.0 | 2.0 | 0.00 | 0.00 | 0.00 | 73 | 1013.8 |
| 20260830183227 | 82 | 176 | 1.0 | 2.0 | 0.00 | 0.00 | 0.00 | 72 | 1013.7 |
| 20260830182722 | 81 | 226 | 2.0 | 2.0 | 0.00 | 0.00 | 0.00 | 73 | 1013.8 |
| 20260830182218 | 80 | 195 | 3.0 | 5.0 | 0.00 | 0.00 | 0.00 | 75 | 1013.6 |
| 20260830181714 | 80 | 186 | 5.0 | 7.0 | 0.00 | 0.00 | 0.00 | 74 | 1013.7 |
| 20260830181209 | 80 | 82 | 2.0 | 3.0 | 0.00 | 0.00 | 0.00 | 75 | 1013.6 |
| 20260830180707 | 81 | 99 | 2.0 | 3.0 | 0.00 | 0.00 | 0.00 | 74 | 1013.8 |
| 20260830180203 | 80 | 238 | 2.0 | 3.0 | 0.00 | 0.00 | 0.00 | 75 | 1013.5 |
| 20260830175702 | 80 | 214 | 3.0 | 5.0 | 0.00 | 0.00 | 0.00 | 74 | 1013.6 |
| 20260830175156 | 80 | 186 | 3.0 | 3.0 | 0.00 | 0.00 | 0.00 | 76 | 1013.5 |
| 20260830174652 | 78 | 122 | 2.0 | 2.0 | 0.00 | 0.00 | 0.00 | 77 | 1013.7 |
| 20260830174147 | 78 | 177 | 2.0 | 3.0 | 0.00 | 0.00 | 0.00 | 78 | 1013.8 |
| 20260830173642 | 78 | 199 | 5.0 | 6.0 | 0.00 | 0.00 | 0.00 | 78 | 1014.0 |
| 20260830173137 | 78 | 103 | 3.0 | 6.0 | 0.00 | 0.00 | 0.00 | 80 | 1013.8 |
| 20260830172634 | 79 | 211 | 3.0 | 5.0 | 0.00 | 0.00 | 0.00 | 78 | 1013.7 |
| 20260830172131 | 78 | 145 | 5.0 | 8.0 | 0.00 | 0.00 | 0.00 | 78 | 1013.9 |
| 20260830171630 | 78 | 122 | 1.0 | 2.0 | 0.00 | 0.00 | 0.00 | 80 | 1014.1 |
| 20260830171125 | 78 | 217 | 1.0 | 3.0 | 0.00 | 0.00 | 0.00 | 80 | 1014.1 |
| 20260830170620 | 77 | 183 | 0.0 | 1.0 | 0.00 | 0.00 | 0.00 | 82 | 1014.2 |
| 20260830170119 | 76 | 170 | 4.0 | 6.0 | 0.00 | 0.00 | 0.00 | 82 | 1014.2 |
| 20260830165614 | 75 | 178 | 2.0 | 2.0 | 0.00 | 0.00 | 0.00 | 84 | 1014.2 |